STARLINK-34571, 64914

Orbit data source: Space-Track

STARLINK-34571, 64914 is a payload satellite owned by SpaceX/Seattle (US) in LEO that was launched on Sat, 26 Jul 2025 UTC via an FALCON 9 launch vehicle from the Air Force Eastern Test Range (AFETR). Payload-class satellites include a variety of spacecraft equipped with specific instruments for various scientific and technological missions. These include communications satellites like Starlink; space stations such as the ISS; scientific satellites like the Hubble; Earth observation satellites from companies like Planet Labs, Umbra, and HawkEye 360; GPS; miniature CubeSats for education and research; and military/defense satellites.

Loading next visibility...
Identifier
64914, 2025-157L
Orbit
LEO
Country
Flag of USUS
Related business
Manufacturer
SpaceX/Seattle
Mission
Operational Commercial Communications
Bus & Motor
STARLINK V2MO, Unknown motor
Mass
575 kg wet, ~530 kg dry
Launch date (UTC)
2025-07-26 (4 months ago)
Launch vehicle
FALCON 9
Launch site
Air Force Eastern Test Range (AFETR)
Object type
Payload
Rocket body
Debris
Shape & HBR
Box + 2 Pan, 17.7 m
Radar Cross Section
36.964 m², Large (>1 m²)

Expand to show TLE details & history
Last TLE update: 20 hours ago

TLE from 20 hours ago
0 STARLINK-34571
1 64914U 25157L   25340.34305460  .00067425  00000-0  16790-2 0  9992
2 64914  53.1592  63.4012 0000185  79.4134 280.6892 15.39650649 21724
Epoch: 2025-12-06T08:13Z
TLE epoch observation values (Epoch: 2025-12-06T08:13:59.917Z)
Latitude
Longitude
-135.47061°
Altitude
448.021 km
Speed
7.645 km/s
True Right ascension
04h 13m 36s
True Declination
0° 00' 00"
Sunlit
Object was in full shadow at epoch
Visualization orbit readout
Latitude
Unknown
Longitude
Unknown
Altitude
Unknown
Speed
Unknown
Apparent Right ascension
Unknown
Apparent Declination
Unknown
Sunlit
N/A
Visualization observer readout
Local Sidereal Time
02:32:26
Azimuth
Unknown
Elevation
Unknown
Doppler factor
Unknown
Orbital elements
Apogee altitude
447.525 km
Perigee altitude
447.273 km
Semi-major axis
6,825.536 km
Eccentricity
0.00002
Inclination
53.1592°
RAAN
63.4012°
Arg. of periapsis
79.4134°
True anomaly
280.68712°
Mean anomaly
280.6892°
Eccentric anomaly
280.68816°
Mean motion
3.84891 °/min
Orbital period
93.53 mins
BSTAR
0.001679
Loading maneuver chart data...
Computing Atmospheric mass density...
Loading historical data...
Loading historical data...
Loading historical data...
Loading historical data...
Loading historical data...
Loading historical data...
Loading historical data...

Documentation

Showing up to 5 results
|